Location: Eyeline Observatory
(43.2182°N, 78.8632°W)
Time: 17:32:51
(UTC-04:00)

OTV 5 (USA 277) - Pass Details

Date: 11 October 2017
Orbit: 404 x 417 km, 43.0° (Epoch: 07 September)

Event Time Altitude Azimuth Distance (km) Brightness Sun altitude
Rises 20:28:17 0° 250° (WSW) 2,350 ? -20.7°
Reaches altitude 10° 20:30:24 10° 247° (WSW) 1,488 ? -21.1°
Enters shadow 20:33:03 48° 221° (SW) 549 ? -21.6°
